EZY1741 EHAM-EIDW

Flight info

Callsign EZY1741
Flight time N/A
Altitude 38000
Route BERGI L60 PENIL UL28 LELDO M145 BAGSO BAGSO4L
Aircraft A20N/M-SDE2E3FGHIRWXY/LB1

Departure

Time 2026-04-27 09:49
Airport Amsterdam Airport Schiphol (EHAM)

Arrival

Time N/A
Airport Dublin Airport (EIDW)
Time Latitude Longitude Altitude Speed Heading
2026-04-27 09:33 52.30911 4.76794 -1 ft 0 kts 181°
2026-04-27 09:40 52.30922 4.76795 -1 ft 3 kts 181°
2026-04-27 09:40 52.30941 4.76796 -1 ft 3 kts 181°
2026-04-27 09:40 52.30959 4.76792 0 ft 3 kts 149°
2026-04-27 09:41 52.30972 4.76770 0 ft 3 kts 107°
2026-04-27 09:41 52.30973 4.76741 0 ft 1 kts 76°
2026-04-27 09:42 52.30995 4.76775 -1 ft 9 kts 19°
2026-04-27 09:42 52.31002 4.76776 -1 ft 0 kts
2026-04-27 09:42 52.31007 4.76776 -1 ft 1 kts 356°
2026-04-27 09:42 52.31013 4.76774 -1 ft 0 kts 356°
2026-04-27 09:43 52.31015 4.76777 -1 ft 1 kts 27°
2026-04-27 09:43 52.31042 4.76807 -1 ft 9 kts 36°
2026-04-27 09:43 52.31106 4.76883 0 ft 13 kts 34°
2026-04-27 09:43 52.31186 4.76970 0 ft 14 kts 33°
2026-04-27 09:44 52.31270 4.77062 -1 ft 16 kts 34°
2026-04-27 09:44 52.31364 4.77165 -1 ft 17 kts 27°
2026-04-27 09:44 52.31486 4.77194 -4 ft 19 kts
2026-04-27 09:44 52.31567 4.77085 -4 ft 17 kts 267°
2026-04-27 09:45 52.31561 4.76897 -2 ft 16 kts 267°
2026-04-27 09:45 52.31556 4.76708 -2 ft 17 kts 268°
2026-04-27 09:45 52.31552 4.76532 3 ft 14 kts 267°
2026-04-27 09:45 52.31546 4.76381 4 ft 13 kts 266°
2026-04-27 09:46 52.31540 4.76207 3 ft 18 kts 268°
2026-04-27 09:46 52.31531 4.75993 4 ft 19 kts 268°
2026-04-27 09:46 52.31525 4.75764 -1 ft 22 kts 268°
2026-04-27 09:46 52.31518 4.75608 -2 ft 11 kts 265°
2026-04-27 09:47 52.31510 4.75445 -2 ft 18 kts 263°
2026-04-27 09:47 52.31504 4.75198 -4 ft 25 kts 267°
2026-04-27 09:47 52.31496 4.74928 0 ft 20 kts 268°
2026-04-27 09:47 52.31504 4.74704 1 ft 18 kts 300°
2026-04-27 09:48 52.31614 4.74661 3 ft 17 kts
2026-04-27 09:48 52.31671 4.74771 2 ft 14 kts 82°
2026-04-27 09:48 52.31678 4.75068 -3 ft 41 kts 87°
2026-04-27 09:48 52.31719 4.75914 0 ft 119 kts 82°
2026-04-27 09:49 52.31764 4.77542 426 ft 164 kts 87°
2026-04-27 09:49 52.31957 4.79583 922 ft 197 kts 64°
2026-04-27 09:49 52.33008 4.81115 1666 ft 217 kts 21°
2026-04-27 09:49 52.34468 4.81227 1954 ft 217 kts 347°
2026-04-27 09:50 52.35953 4.80495 2511 ft 232 kts 343°
2026-04-27 09:50 52.37526 4.79777 3816 ft 230 kts 346°
2026-04-27 09:50 52.38959 4.78752 5176 ft 228 kts 324°
2026-04-27 09:50 52.40201 4.76954 5999 ft 247 kts 315°
2026-04-27 09:51 52.41424 4.74869 6826 ft 261 kts 313°
2026-04-27 09:51 52.42702 4.72676 7781 ft 268 kts 314°
2026-04-27 09:51 52.44006 4.70479 8803 ft 272 kts 314°
2026-04-27 09:51 52.45353 4.68240 9838 ft 276 kts 314°
2026-04-27 09:52 52.46759 4.66066 10771 ft 285 kts 324°
2026-04-27 09:52 52.48587 4.64566 11263 ft 309 kts 336°
2026-04-27 09:52 52.50658 4.63276 11968 ft 323 kts 338°
2026-04-27 09:52 52.52772 4.61997 12898 ft 329 kts 338°
2026-04-27 09:53 52.54940 4.60656 13936 ft 333 kts 337°
2026-04-27 09:53 52.57125 4.59275 14880 ft 337 kts 336°
2026-04-27 09:53 52.59310 4.57875 15760 ft 341 kts 336°
2026-04-27 09:53 52.61541 4.56433 16652 ft 345 kts 335°
2026-04-27 09:54 52.63772 4.54985 17514 ft 349 kts 335°
2026-04-27 09:54 52.66061 4.53495 18350 ft 354 kts 335°
2026-04-27 09:54 52.68373 4.52107 19066 ft 358 kts 335°
2026-04-27 09:54 52.70449 4.49897 19746 ft 356 kts 312°
2026-04-27 09:55 52.71832 4.46523 20475 ft 355 kts 295°
2026-04-27 09:55 52.72882 4.42862 21211 ft 358 kts 294°
2026-04-27 09:55 52.75249 4.35543 22598 ft 365 kts 293°
2026-04-27 09:56 52.76161 4.31652 23267 ft 367 kts 288°
2026-04-27 09:56 52.76928 4.27581 23915 ft 370 kts 285°
2026-04-27 09:56 52.77638 4.23487 24449 ft 373 kts 285°
2026-04-27 09:56 52.78356 4.19382 24972 ft 376 kts 285°
2026-04-27 09:57 52.79117 4.15208 25508 ft 378 kts 286°
2026-04-27 09:57 52.79900 4.11078 26035 ft 380 kts 287°
2026-04-27 09:57 52.80719 4.06891 26522 ft 383 kts 287°
2026-04-27 09:57 52.81549 4.02718 27028 ft 385 kts 287°
2026-04-27 09:58 52.82395 3.98491 27504 ft 387 kts 287°
2026-04-27 09:58 52.83244 3.94253 27972 ft 389 kts 287°
2026-04-27 09:58 52.84089 3.90024 28436 ft 391 kts 287°
2026-04-27 09:58 52.84949 3.85707 28888 ft 394 kts 287°
2026-04-27 09:59 52.85801 3.81410 29320 ft 396 kts 286°
2026-04-27 09:59 52.86653 3.77099 29753 ft 398 kts 286°
2026-04-27 09:59 52.87516 3.72714 30173 ft 400 kts 286°
2026-04-27 09:59 52.88375 3.68345 30553 ft 402 kts 286°
2026-04-27 10:00 52.89236 3.63950 30880 ft 404 kts 286°
2026-04-27 10:00 52.90113 3.59468 31210 ft 406 kts 286°
2026-04-27 10:00 52.90974 3.55056 31622 ft 405 kts 286°
2026-04-27 10:00 52.91846 3.50582 32097 ft 404 kts 286°
2026-04-27 10:01 52.92701 3.46184 32546 ft 402 kts 286°
2026-04-27 10:01 52.93548 3.41810 32986 ft 400 kts 286°
2026-04-27 10:01 52.94403 3.37393 33422 ft 399 kts 285°
2026-04-27 10:01 52.95240 3.33056 33837 ft 398 kts 285°
2026-04-27 10:02 52.96085 3.28661 34245 ft 397 kts 285°
2026-04-27 10:02 52.96919 3.24323 34577 ft 396 kts 285°
2026-04-27 10:02 52.97748 3.19993 34847 ft 397 kts 286°
2026-04-27 10:02 52.98589 3.15596 35127 ft 397 kts 286°
2026-04-27 10:03 52.99415 3.11259 35374 ft 398 kts 286°
2026-04-27 10:03 53.00258 3.06827 35639 ft 398 kts 286°
2026-04-27 10:03 53.01082 3.02487 35897 ft 399 kts 286°
2026-04-27 10:03 53.01921 2.98057 36151 ft 399 kts 286°
2026-04-27 10:04 53.02747 2.93683 36382 ft 400 kts 286°
2026-04-27 10:04 53.03577 2.89282 36630 ft 400 kts 286°
2026-04-27 10:04 53.04415 2.84826 36870 ft 401 kts 286°
2026-04-27 10:04 53.05240 2.80426 37104 ft 401 kts 286°
2026-04-27 10:05 53.06075 2.75967 37346 ft 402 kts 286°
2026-04-27 10:05 53.06897 2.71564 37559 ft 402 kts 286°
2026-04-27 10:05 53.07726 2.67113 37768 ft 403 kts 286°
2026-04-27 10:05 53.08558 2.62640 37994 ft 403 kts 286°
2026-04-27 10:06 53.09385 2.58176 38210 ft 403 kts 287°
2026-04-27 10:06 53.10204 2.53748 38320 ft 405 kts 287°
2026-04-27 10:06 53.11473 2.44607 38321 ft 404 kts 279°